Location: Huberhof
(49.2050°N, 7.4980°E)
Time: 01:13:21
(UTC+00:00)

CZ-4 R/B - Pass Details

Date: 29 October 2020
Orbit: 532 x 598 km, 97.7° (Epoch: 26 November)

Event Time Altitude Azimuth Distance (km) Brightness Sun altitude
Rises 18:59:56 0° 203° (SSW) 2,694 5.0 -27.7°
Reaches altitude 10° 19:02:34 10° 222° (SW) 1,798 4.3 -28.1°
Maximum altitude 19:05:20 19° 268° (W) 1,336 4.0 -28.5°
Drops below altitude 10° 19:08:06 10° 314° (NW) 1,796 4.6 -29.0°
Sets 19:10:44 0° 333° (NNW) 2,690 5.4 -29.4°
